Location: Saint-Elix
(43.4279°N, 0.4684°E)
Time: 07:32:06
(UTC+00:00)

CZ-4B R/B - Pass Details

Date: 06 September 2025
Orbit: 808 x 879 km, 98.9° (Epoch: 07 December)

Event Time Altitude Azimuth Distance (km) Brightness Sun altitude
Exits shadow 20:58:23 20° 207° (SSW) 1,915 4.9 -26.3°
Maximum altitude 21:01:42 37° 263° (W) 1,323 4.5 -26.7°
Drops below altitude 10° 21:06:52 10° 330° (NNW) 2,514 6.5 -27.4°
Sets 21:09:26 0° 338° (NNW) 3,445 7.3 -27.8°
